Regional Weather Roundup
Issued by NWS Green Bay, WI

Home | Current Version | Previous Version | Text Only | Print | Product List | Glossary On
Versions: 1 2 3 4 5 6 7 8 9 10 11 12 13 14 15 16 17 18 19 20 21 22 23 24 25 26 27 28 29 30 31 32 33 34 35 36 37 38 39 40 41 42 43 44 45 46 47 48 49 50
000
ASUS43 KGRB 020710
RWRGRB

NORTH-CENTRAL AND NORTHEAST WISCONSIN REGIONAL WEATHER ROUNDUP
NATIONAL WEATHER SERVICE GREEN BAY WI
100 AM CST MON MAR 02 2015

WIZ005-009-010>012-018-019-020800-
NORTH CENTRAL WISCONSIN

CITY           SKY/WX    TMP DP  RH WIND       PRES   REMARKS
IRONWOOD       CLOUDY    18   7  62 NW17G24   30.23R WCI   2
MANITOWISH WTR FLURRIES  15   6  66 NW16G25   30.21R WCI   0
ARBOR VITAE    FLURRIES  19  12  74 NW10G21   30.21R WCI   8
EAGLE RIVER    LGT SNOW  17   9  70 NW16      30.18R WCI   2
LAND O LAKES   LGT SNOW  17  12  81 NW8G21    30.19R WCI   6
RHINELANDER    CLOUDY    15   6  67 W8        30.20R WCI   4
PHILLIPS       FLURRIES  15   9  75 W5        30.24R WCI   8
ANTIGO         CLEAR     13   6  73 W10       30.22R WCI   0
TOMAHAWK       MOCLDY    15   8  73 CALM      30.24R
MERRILL        CLEAR     14   7  73 NW3       30.25R
$$

WIZ013-073-020800-
NORTHEAST WISCONSIN

CITY           SKY/WX    TMP DP  RH WIND       PRES   REMARKS
IRON MOUNTAIN  CLOUDY    15   4  61 W8        30.17R WCI   4
MARINETTE      CLEAR     18   5  57 W6        30.22R WCI   9
OCONTO         CLEAR     16   6  65 W9        30.26R WCI   4
$$

WIZ017-030-035>037-045-020800-
CENTRAL WISCONSIN

CITY           SKY/WX    TMP DP  RH WIND       PRES   REMARKS
MEDFORD        CLEAR     13   7  75 W9        30.27R WCI   1
WAUSAU         CLEAR     13   5  70 NW9       30.25R WCI   1
MOSINEE        CLEAR     14   9  79 W8        30.28R WCI   3
MARSHFIELD     CLEAR     15   7  70 NW10      30.29R WCI   2
WISC RAPIDS    CLEAR     15   6  67 W9        30.32R WCI   3
STEVENS POINT  CLEAR     14   7  73 W7        30.29R WCI   4
WAUPACA        CLEAR     19   9  65 W6        30.30R
SHAWANO        CLEAR     19   8  61 W6        30.27R
CLINTONVILLE   CLEAR     16   7  67 W7        30.28R WCI   6
$$

WIZ038-039-048-051-020800-
FOX VALLEY

CITY           SKY/WX    TMP DP  RH WIND       PRES   REMARKS
NWS GREEN BAY  CLEAR     16   7  67 SW8       30.28R WCI   5
APPLETON       CLEAR     14   5  67 SW7       30.29R WCI   4
OSHKOSH        CLEAR     16   6  65 W6        30.30R WCI   7
FOND DU LAC    CLEAR     16   6  65 SW6       30.32R WCI   7
$$

WIZ022-050-052-020800-
EAST CENTRAL WISCONSIN

CITY           SKY/WX    TMP DP  RH WIND       PRES   REMARKS
STURGEON BAY   CLEAR     18   5  57 W10       30.25R WCI   6
MANITOWOC      CLEAR     18  10  71 W9        30.28R WCI   7
SHEBOYGAN      CLEAR     18   7  62 W13       30.30R WCI   5
$$

LMZ563-521-522-541>543-020800-
LAKESHORE

STATION/POSITION TIME  TEMP    WIND        PRES    VSBY  WAVE
                       AIR SEA DIR/SP/G                  HT/PER
                 (UTC) (F)     (DEG/KT/KT) (MB)    (MI)  (FT/S)
SHEBOYGAN LKSHOR 0700   20     270/ 10/ 13 1027.8R
KEWAUNEE LKSHORE 0700          280/  8/ 12 1023.5R
NORTHPORT PIER   0700   18     270/  7/ 18 1023.4R
SISTER BAY LKSHO 0700   13     280/  7/  7   N/A
CHAMBERS ISLAND  0700   17     230/  7/ 10 1023.4R
MENOMINEE LKSHOR 0700          230/  7     1024.2R
$$



USA.gov is the U.S. government's official web portal to all federal, state and local government web resources and services.